Location: PSU-Greenbush Astrophysical Observatory
(37.5140°N, 94.9880°W)
Time: 14:28:32
(UTC-06:00)

Transit 2A - Pass Details

Date: 02 February 2020
Orbit: 600 x 959 km, 66.7° (Epoch: 19 February)

Event Time Altitude Azimuth Distance (km) Brightness Sun altitude
Rises 04:26:34 0° 317° (NW) 3,092 - -35.2°
Reaches altitude 10° 04:29:09 10° 305° (NW) 2,228 - -34.7°
Maximum altitude 04:33:17 25° 250° (WSW) 1,509 - -33.9°
Drops below altitude 10° 04:37:45 10° 196° (SSW) 2,415 - -33.0°
Sets 04:40:40 0° 184° (S) 3,408 - -32.4°
